Year,Month,Day,Hour,Minute,Value (Times are PST for windspeed in km/hr)
2008,01,13,00,00,0.80
2008,01,13,00,01,2.40
2008,01,13,00,02,1.30
2008,01,13,00,03,4.40
2008,01,13,00,04,2.20
2008,01,13,00,05,2.70
2008,01,13,00,06,0.10
2008,01,13,00,07,2.50
2008,01,13,00,08,2.90
2008,01,13,00,09,0.60
2008,01,13,00,10,0.50
2008,01,13,00,11,3.90
2008,01,13,00,12,5.90
2008,01,13,00,13,7.70
2008,01,13,00,14,6.40
2008,01,13,00,15,1.30
2008,01,13,00,16,3.70
2008,01,13,00,17,4.70
2008,01,13,00,18,3.50
2008,01,13,00,19,2.60
2008,01,13,00,20,3.90
2008,01,13,00,21,4.10
2008,01,13,00,22,3.40
2008,01,13,00,23,3.70
2008,01,13,00,24,4.10
2008,01,13,00,25,4.10
2008,01,13,00,26,1.90
2008,01,13,00,27,0.90
2008,01,13,00,28,1.10
2008,01,13,00,29,3.10
2008,01,13,00,30,3.10
2008,01,13,00,31,5.60
2008,01,13,00,32,5.20
2008,01,13,00,33,1.90
2008,01,13,00,34,1.00
2008,01,13,00,35,2.30
2008,01,13,00,36,3.90
2008,01,13,00,37,3.10
2008,01,13,00,38,1.20
2008,01,13,00,39,1.70
2008,01,13,00,40,2.90
2008,01,13,00,41,3.90
2008,01,13,00,42,2.90
2008,01,13,00,43,3.90
2008,01,13,00,44,2.60
2008,01,13,00,45,4.10
2008,01,13,00,46,5.00
2008,01,13,00,47,4.30
2008,01,13,00,48,1.60
2008,01,13,00,49,2.90
2008,01,13,00,50,2.20
2008,01,13,00,51,3.00
2008,01,13,00,52,3.40
2008,01,13,00,53,3.30
2008,01,13,00,54,1.60
2008,01,13,00,55,0.10
2008,01,13,00,56,0.30
2008,01,13,00,57,2.10
2008,01,13,00,58,0.60
2008,01,13,00,59,1.40
2008,01,13,01,00,0.70
2008,01,13,01,01,2.80
2008,01,13,01,02,2.60
2008,01,13,01,03,2.60
2008,01,13,01,04,2.60
2008,01,13,01,05,0.80
2008,01,13,01,06,0.30
2008,01,13,01,07,0.30
2008,01,13,01,08,2.90
2008,01,13,01,09,0.90
2008,01,13,01,10,0.00
2008,01,13,01,11,0.90
2008,01,13,01,12,2.70
2008,01,13,01,13,3.20
2008,01,13,01,14,2.70
2008,01,13,01,15,2.60
2008,01,13,01,16,3.90
2008,01,13,01,17,3.20
2008,01,13,01,18,2.80
2008,01,13,01,19,1.70
2008,01,13,01,20,1.60
2008,01,13,01,21,0.40
2008,01,13,01,22,0.00
2008,01,13,01,23,0.00
2008,01,13,01,24,0.00
2008,01,13,01,25,0.00
2008,01,13,01,26,0.00
2008,01,13,01,27,0.00
2008,01,13,01,28,1.50
2008,01,13,01,29,1.90
2008,01,13,01,30,2.60
2008,01,13,01,31,3.10
2008,01,13,01,32,1.90
2008,01,13,01,33,0.90
2008,01,13,01,34,1.80
2008,01,13,01,35,1.80
2008,01,13,01,36,0.60
2008,01,13,01,37,0.50
2008,01,13,01,38,1.50
2008,01,13,01,39,1.70
2008,01,13,01,40,2.60
2008,01,13,01,41,1.40
2008,01,13,01,42,0.80
2008,01,13,01,43,2.10
2008,01,13,01,44,2.20
2008,01,13,01,45,1.40
2008,01,13,01,46,0.90
2008,01,13,01,47,0.90
2008,01,13,01,48,2.20
2008,01,13,01,49,1.80
2008,01,13,01,50,2.10
2008,01,13,01,51,2.00
2008,01,13,01,52,1.00
2008,01,13,01,53,0.10
2008,01,13,01,54,0.00
2008,01,13,01,55,0.00
2008,01,13,01,56,0.10
2008,01,13,01,57,0.00
2008,01,13,01,58,0.00
2008,01,13,01,59,0.00
2008,01,13,02,00,0.00
2008,01,13,02,01,0.10
2008,01,13,02,02,0.00
2008,01,13,02,03,0.20
2008,01,13,02,04,0.30
2008,01,13,02,05,0.20
2008,01,13,02,06,0.70
2008,01,13,02,07,2.30
2008,01,13,02,08,2.70
2008,01,13,02,09,2.00
2008,01,13,02,10,3.30
2008,01,13,02,11,5.60
2008,01,13,02,12,4.70
2008,01,13,02,13,1.60
2008,01,13,02,14,2.80
2008,01,13,02,15,1.10
2008,01,13,02,16,0.70
2008,01,13,02,17,3.70
2008,01,13,02,18,3.70
2008,01,13,02,19,3.50
2008,01,13,02,20,4.00
2008,01,13,02,21,2.20
2008,01,13,02,22,0.60
2008,01,13,02,23,2.10
2008,01,13,02,24,1.40
2008,01,13,02,25,0.60
2008,01,13,02,26,0.10
2008,01,13,02,27,0.00
2008,01,13,02,28,0.40
2008,01,13,02,29,1.00
2008,01,13,02,30,2.20
2008,01,13,02,31,4.30
2008,01,13,02,32,3.90
2008,01,13,02,33,4.30
2008,01,13,02,34,3.70
2008,01,13,02,35,1.90
2008,01,13,02,36,1.50
2008,01,13,02,37,2.80
2008,01,13,02,38,2.40
2008,01,13,02,39,2.10
2008,01,13,02,40,0.60
2008,01,13,02,41,0.30
2008,01,13,02,42,3.10
2008,01,13,02,43,2.40
2008,01,13,02,44,2.90
2008,01,13,02,45,2.50
2008,01,13,02,46,2.80
2008,01,13,02,47,3.40
2008,01,13,02,48,4.30
2008,01,13,02,49,4.60
2008,01,13,02,50,4.80
2008,01,13,02,51,3.40
2008,01,13,02,52,0.80
2008,01,13,02,53,1.70
2008,01,13,02,54,1.90
2008,01,13,02,55,4.20
2008,01,13,02,56,4.50
2008,01,13,02,57,3.80
2008,01,13,02,58,3.90
2008,01,13,02,59,3.10
2008,01,13,03,00,1.90
2008,01,13,03,01,2.50
2008,01,13,03,02,0.10
2008,01,13,03,03,0.00
2008,01,13,03,04,0.10
2008,01,13,03,05,0.10
2008,01,13,03,06,0.50
2008,01,13,03,07,0.50
2008,01,13,03,08,0.00
2008,01,13,03,09,0.00
2008,01,13,03,10,0.20
2008,01,13,03,11,1.50
2008,01,13,03,12,0.60
2008,01,13,03,13,0.20
2008,01,13,03,14,0.00
2008,01,13,03,15,0.00
2008,01,13,03,16,0.00
2008,01,13,03,17,0.10
2008,01,13,03,18,3.70
2008,01,13,03,19,3.60
2008,01,13,03,20,0.80
2008,01,13,03,21,0.00
2008,01,13,03,22,0.00
2008,01,13,03,23,0.00
2008,01,13,03,24,1.00
2008,01,13,03,25,2.20
2008,01,13,03,26,3.60
2008,01,13,03,27,4.50
2008,01,13,03,28,2.40
2008,01,13,03,29,1.90
2008,01,13,03,30,2.50
2008,01,13,03,31,0.60
2008,01,13,03,32,0.20
2008,01,13,03,33,0.10
2008,01,13,03,34,0.20
2008,01,13,03,35,0.80
2008,01,13,03,36,1.00
2008,01,13,03,37,0.60
2008,01,13,03,38,1.40
2008,01,13,03,39,2.40
2008,01,13,03,40,2.30
2008,01,13,03,41,0.60
2008,01,13,03,42,1.50
2008,01,13,03,43,1.00
2008,01,13,03,44,1.30
2008,01,13,03,45,0.70
2008,01,13,03,46,1.70
2008,01,13,03,47,1.40
2008,01,13,03,48,2.90
2008,01,13,03,49,2.50
2008,01,13,03,50,1.70
2008,01,13,03,51,3.10
2008,01,13,03,52,3.00
2008,01,13,03,53,2.70
2008,01,13,03,54,1.90
2008,01,13,03,55,1.20
2008,01,13,03,56,0.80
2008,01,13,03,57,1.10
2008,01,13,03,58,1.90
2008,01,13,03,59,2.50
2008,01,13,04,00,2.60
2008,01,13,04,01,2.80
2008,01,13,04,02,2.70
2008,01,13,04,03,3.90
2008,01,13,04,04,3.60
2008,01,13,04,05,2.20
2008,01,13,04,06,3.30
2008,01,13,04,07,3.90
2008,01,13,04,08,5.10
2008,01,13,04,09,6.00
2008,01,13,04,10,5.60
2008,01,13,04,11,5.30
2008,01,13,04,12,4.90
2008,01,13,04,13,5.00
2008,01,13,04,14,8.00
2008,01,13,04,15,7.60
2008,01,13,04,16,7.30
2008,01,13,04,17,8.10
2008,01,13,04,18,8.20
2008,01,13,04,19,6.00
2008,01,13,04,20,7.30
2008,01,13,04,21,7.30
2008,01,13,04,22,8.70
2008,01,13,04,23,8.30
2008,01,13,04,24,9.40
2008,01,13,04,25,9.70
2008,01,13,04,26,10.10
2008,01,13,04,27,10.30
2008,01,13,04,28,10.90
2008,01,13,04,29,15.40
2008,01,13,04,30,10.90
2008,01,13,04,31,14.30
2008,01,13,04,32,13.80
2008,01,13,04,33,14.50
2008,01,13,04,34,10.50
2008,01,13,04,35,15.40
2008,01,13,04,36,12.50
2008,01,13,04,37,13.40
2008,01,13,04,38,10.10
2008,01,13,04,39,12.60
2008,01,13,04,40,10.50
2008,01,13,04,41,11.00
2008,01,13,04,42,8.10
2008,01,13,04,43,9.70
2008,01,13,04,44,9.90
2008,01,13,04,45,12.10
2008,01,13,04,46,11.40
2008,01,13,04,47,10.10
2008,01,13,04,48,15.30
2008,01,13,04,49,11.90
2008,01,13,04,50,10.10
2008,01,13,04,51,9.70
2008,01,13,04,52,11.10
2008,01,13,04,53,10.80
2008,01,13,04,54,8.90
2008,01,13,04,55,6.20
2008,01,13,04,56,5.90
2008,01,13,04,57,5.70
2008,01,13,04,58,5.80
2008,01,13,04,59,4.30
2008,01,13,05,00,2.50
2008,01,13,05,01,3.20
2008,01,13,05,02,8.50
2008,01,13,05,03,7.70
2008,01,13,05,04,6.40
2008,01,13,05,05,5.90
2008,01,13,05,06,4.60
2008,01,13,05,07,4.70
2008,01,13,05,08,5.30
2008,01,13,05,09,4.60
2008,01,13,05,10,3.80
2008,01,13,05,11,5.00
2008,01,13,05,12,4.30
2008,01,13,05,13,5.00
2008,01,13,05,14,3.70
2008,01,13,05,15,4.00
2008,01,13,05,16,5.10
2008,01,13,05,17,5.10
2008,01,13,05,18,4.90
2008,01,13,05,19,4.60
2008,01,13,05,20,3.50
2008,01,13,05,21,1.90
2008,01,13,05,22,1.70
2008,01,13,05,23,3.40
2008,01,13,05,24,4.70
2008,01,13,05,25,3.50
2008,01,13,05,26,1.20
2008,01,13,05,27,3.30
2008,01,13,05,28,3.40
2008,01,13,05,29,3.10
2008,01,13,05,30,3.50
2008,01,13,05,31,4.50
2008,01,13,05,32,1.90
2008,01,13,05,33,2.20
2008,01,13,05,34,1.80
2008,01,13,05,35,1.50
2008,01,13,05,36,0.10
2008,01,13,05,37,0.20
2008,01,13,05,38,2.50
2008,01,13,05,39,3.40
2008,01,13,05,40,1.60
2008,01,13,05,41,3.60
2008,01,13,05,42,4.40
2008,01,13,05,43,4.50
2008,01,13,05,44,4.10
2008,01,13,05,45,4.50
2008,01,13,05,46,3.50
2008,01,13,05,47,3.60
2008,01,13,05,48,3.50
2008,01,13,05,49,1.30
2008,01,13,05,50,2.70
2008,01,13,05,51,1.50
2008,01,13,05,52,0.60
2008,01,13,05,53,0.60
2008,01,13,05,54,1.00
2008,01,13,05,55,3.80
2008,01,13,05,56,2.00
2008,01,13,05,57,4.40
2008,01,13,05,58,5.50
2008,01,13,05,59,4.50
2008,01,13,06,00,1.60
2008,01,13,06,01,2.60
2008,01,13,06,02,3.20
2008,01,13,06,03,2.60
2008,01,13,06,04,2.40
2008,01,13,06,05,3.70
2008,01,13,06,06,3.10
2008,01,13,06,07,0.90
2008,01,13,06,08,0.00
2008,01,13,06,09,0.00
2008,01,13,06,10,0.20
2008,01,13,06,11,1.40
2008,01,13,06,12,2.80
2008,01,13,06,13,2.30
2008,01,13,06,14,2.20
2008,01,13,06,15,2.00
2008,01,13,06,16,1.90
2008,01,13,06,17,2.60
2008,01,13,06,18,4.00
2008,01,13,06,19,3.50
2008,01,13,06,20,4.30
2008,01,13,06,21,1.30
2008,01,13,06,22,0.20
2008,01,13,06,23,0.00
2008,01,13,06,24,0.00
2008,01,13,06,25,0.00
2008,01,13,06,26,0.20
2008,01,13,06,27,0.20
2008,01,13,06,28,0.10
2008,01,13,06,29,0.00
2008,01,13,06,30,0.60
2008,01,13,06,31,2.80
2008,01,13,06,32,1.20
2008,01,13,06,33,0.30
2008,01,13,06,34,2.30
2008,01,13,06,35,3.90
2008,01,13,06,36,4.30
2008,01,13,06,37,4.40
2008,01,13,06,38,4.50
2008,01,13,06,39,2.70
2008,01,13,06,40,2.70
2008,01,13,06,41,1.20
2008,01,13,06,42,2.10
2008,01,13,06,43,0.60
2008,01,13,06,44,0.00
2008,01,13,06,45,0.00
2008,01,13,06,46,0.00
2008,01,13,06,47,0.00
2008,01,13,06,48,0.50
2008,01,13,06,49,1.50
2008,01,13,06,50,0.10
2008,01,13,06,51,0.30
2008,01,13,06,52,0.60
2008,01,13,06,53,0.00
2008,01,13,06,54,0.00
2008,01,13,06,55,0.00
2008,01,13,06,56,0.00
2008,01,13,06,57,0.00
2008,01,13,06,58,0.00
2008,01,13,06,59,0.00
2008,01,13,07,00,0.90
2008,01,13,07,01,2.10
2008,01,13,07,02,2.30
2008,01,13,07,03,0.10
2008,01,13,07,04,0.10
2008,01,13,07,05,0.10
2008,01,13,07,06,0.40
2008,01,13,07,07,0.30
2008,01,13,07,08,2.30
2008,01,13,07,09,2.00
2008,01,13,07,10,1.50
2008,01,13,07,11,3.50
2008,01,13,07,12,3.50
2008,01,13,07,13,3.40
2008,01,13,07,14,1.20
2008,01,13,07,15,0.20
2008,01,13,07,16,0.00
2008,01,13,07,17,0.00
2008,01,13,07,18,0.00
2008,01,13,07,19,0.00
2008,01,13,07,20,0.00
2008,01,13,07,21,0.50
2008,01,13,07,22,1.50
2008,01,13,07,23,0.30
2008,01,13,07,24,0.00
2008,01,13,07,25,0.00
2008,01,13,07,26,0.00
2008,01,13,07,27,0.00
2008,01,13,07,28,0.00
2008,01,13,07,29,0.10
2008,01,13,07,30,0.30
2008,01,13,07,31,0.90
2008,01,13,07,32,0.20
2008,01,13,07,33,0.00
2008,01,13,07,34,0.00
2008,01,13,07,35,0.00
2008,01,13,07,36,0.00
2008,01,13,07,37,0.00
2008,01,13,07,38,0.00
2008,01,13,07,39,0.00
2008,01,13,07,40,0.00
2008,01,13,07,41,0.00
2008,01,13,07,42,0.00
2008,01,13,07,43,0.00
2008,01,13,07,44,0.00
2008,01,13,07,45,0.00
2008,01,13,07,46,0.00
2008,01,13,07,47,0.00
2008,01,13,07,48,0.00
2008,01,13,07,49,0.00
2008,01,13,07,50,0.00
2008,01,13,07,51,0.90
2008,01,13,07,52,0.90
2008,01,13,07,53,0.00
2008,01,13,07,54,0.00
2008,01,13,07,55,0.00
2008,01,13,07,56,0.00
2008,01,13,07,57,1.90
2008,01,13,07,58,2.70
2008,01,13,07,59,0.20
2008,01,13,08,00,1.20
2008,01,13,08,01,0.00
2008,01,13,08,02,0.00
2008,01,13,08,03,0.00
2008,01,13,08,04,0.00
2008,01,13,08,05,0.00
2008,01,13,08,06,0.40
2008,01,13,08,07,0.00
2008,01,13,08,08,0.10
2008,01,13,08,09,3.60
2008,01,13,08,10,4.20
2008,01,13,08,11,3.20
2008,01,13,08,12,3.70
2008,01,13,08,13,2.70
2008,01,13,08,14,5.10
2008,01,13,08,15,5.70
2008,01,13,08,16,4.90
2008,01,13,08,17,3.50
2008,01,13,08,18,4.50
2008,01,13,08,19,4.80
2008,01,13,08,20,2.90
2008,01,13,08,21,3.40
2008,01,13,08,22,3.00
2008,01,13,08,23,4.20
2008,01,13,08,24,4.60
2008,01,13,08,25,6.50
2008,01,13,08,26,6.90
2008,01,13,08,27,4.80
2008,01,13,08,28,7.20
2008,01,13,08,29,4.90
2008,01,13,08,30,6.10
2008,01,13,08,31,6.00
2008,01,13,08,32,5.80
2008,01,13,08,33,3.00
2008,01,13,08,34,3.50
2008,01,13,08,35,4.10
2008,01,13,08,36,5.40
2008,01,13,08,37,5.60
2008,01,13,08,38,5.10
2008,01,13,08,39,4.40
2008,01,13,08,40,4.20
2008,01,13,08,41,4.00
2008,01,13,08,42,4.70
2008,01,13,08,43,3.50
2008,01,13,08,44,4.80
2008,01,13,08,45,4.70
2008,01,13,08,46,5.00
2008,01,13,08,47,5.70
2008,01,13,08,48,6.00
2008,01,13,08,49,6.40
2008,01,13,08,50,6.40
2008,01,13,08,51,5.90
2008,01,13,08,52,5.30
2008,01,13,08,53,6.40
2008,01,13,08,54,5.10
2008,01,13,08,55,5.50
2008,01,13,08,56,4.30
2008,01,13,08,57,5.80
2008,01,13,08,58,4.80
2008,01,13,08,59,6.60
2008,01,13,09,00,4.70
2008,01,13,09,01,8.10
2008,01,13,09,02,6.30
2008,01,13,09,03,6.00
2008,01,13,09,04,6.40
2008,01,13,09,05,7.20
2008,01,13,09,06,5.60
2008,01,13,09,07,8.20
2008,01,13,09,08,9.30
2008,01,13,09,09,7.80
2008,01,13,09,10,10.90
2008,01,13,09,11,7.60
2008,01,13,09,12,8.50
2008,01,13,09,13,8.10
2008,01,13,09,14,7.40
2008,01,13,09,15,8.90
2008,01,13,09,16,6.80
2008,01,13,09,17,6.30
2008,01,13,09,18,6.90
2008,01,13,09,19,4.20
2008,01,13,09,20,5.90
2008,01,13,09,21,4.30
2008,01,13,09,22,1.90
2008,01,13,09,23,1.60
2008,01,13,09,24,1.90
2008,01,13,09,25,4.50
2008,01,13,09,26,4.40
2008,01,13,09,27,3.30
2008,01,13,09,28,4.60
2008,01,13,09,29,5.10
2008,01,13,09,30,5.30
2008,01,13,09,31,5.10
2008,01,13,09,32,2.40
2008,01,13,09,33,5.90
2008,01,13,09,34,6.80
2008,01,13,09,35,4.60
2008,01,13,09,36,4.40
2008,01,13,09,37,4.70
2008,01,13,09,38,4.80
2008,01,13,09,39,7.30
2008,01,13,09,40,5.50
2008,01,13,09,41,3.30
2008,01,13,09,42,4.80
2008,01,13,09,43,4.80
2008,01,13,09,44,4.80
2008,01,13,09,45,2.40
2008,01,13,09,46,1.20
2008,01,13,09,47,2.70
2008,01,13,09,48,2.10
2008,01,13,09,49,2.30
2008,01,13,09,50,4.10
2008,01,13,09,51,4.10
2008,01,13,09,52,3.50
2008,01,13,09,53,3.20
2008,01,13,09,54,4.40
2008,01,13,09,55,4.20
2008,01,13,09,56,3.70
2008,01,13,09,57,2.90
2008,01,13,09,58,1.50
2008,01,13,09,59,1.80
2008,01,13,10,00,2.00
2008,01,13,10,01,0.30
2008,01,13,10,02,1.70
2008,01,13,10,03,0.60
2008,01,13,10,04,1.20
2008,01,13,10,05,1.10
2008,01,13,10,06,0.10
2008,01,13,10,07,0.50
2008,01,13,10,08,0.20
2008,01,13,10,09,0.50
2008,01,13,10,10,1.30
2008,01,13,10,11,1.90
2008,01,13,10,12,1.40
2008,01,13,10,13,4.00
2008,01,13,10,14,1.60
2008,01,13,10,15,2.30
2008,01,13,10,16,3.20
2008,01,13,10,17,4.60
2008,01,13,10,18,3.50
2008,01,13,10,19,4.40
2008,01,13,10,20,4.60
2008,01,13,10,21,3.20
2008,01,13,10,22,3.10
2008,01,13,10,23,5.10
2008,01,13,10,24,3.80
2008,01,13,10,25,3.30
2008,01,13,10,26,1.30
2008,01,13,10,27,0.10
2008,01,13,10,28,0.80
2008,01,13,10,29,1.20
2008,01,13,10,30,3.80
2008,01,13,10,31,3.40
2008,01,13,10,32,1.90
2008,01,13,10,33,2.20
2008,01,13,10,34,5.60
2008,01,13,10,35,4.20
2008,01,13,10,36,5.10
2008,01,13,10,37,7.00
2008,01,13,10,38,5.20
2008,01,13,10,39,6.10
2008,01,13,10,40,7.30
2008,01,13,10,41,5.40
2008,01,13,10,42,2.60
2008,01,13,10,43,4.60
2008,01,13,10,44,4.10
2008,01,13,10,45,3.50
2008,01,13,10,46,2.20
2008,01,13,10,47,3.40
2008,01,13,10,48,3.60
2008,01,13,10,49,3.80
2008,01,13,10,50,4.80
2008,01,13,10,51,6.10
2008,01,13,10,52,3.90
2008,01,13,10,53,3.40
2008,01,13,10,54,5.20
2008,01,13,10,55,3.90
2008,01,13,10,56,4.00
2008,01,13,10,57,3.50
2008,01,13,10,58,5.60
2008,01,13,10,59,6.00
2008,01,13,11,00,8.70
2008,01,13,11,01,9.60
2008,01,13,11,02,9.70
2008,01,13,11,03,11.20
2008,01,13,11,04,9.90
2008,01,13,11,05,6.00
2008,01,13,11,06,6.20
2008,01,13,11,07,7.30
2008,01,13,11,08,12.20
2008,01,13,11,09,11.10
2008,01,13,11,10,10.00
2008,01,13,11,11,10.70
2008,01,13,11,12,8.30
2008,01,13,11,13,7.20
2008,01,13,11,14,8.80
2008,01,13,11,15,7.60
2008,01,13,11,16,8.60
2008,01,13,11,17,8.70
2008,01,13,11,18,12.70
2008,01,13,11,19,13.00
2008,01,13,11,20,14.50
2008,01,13,11,21,12.70
2008,01,13,11,22,7.50
2008,01,13,11,23,16.40
2008,01,13,11,24,11.40
2008,01,13,11,25,16.30
2008,01,13,11,26,9.90
2008,01,13,11,27,7.40
2008,01,13,11,28,13.20
2008,01,13,11,29,8.30
2008,01,13,11,30,8.60
2008,01,13,11,31,6.40
2008,01,13,11,32,5.90
2008,01,13,11,33,8.10
2008,01,13,11,34,13.70
2008,01,13,11,35,5.50
2008,01,13,11,36,5.00
2008,01,13,11,37,12.40
2008,01,13,11,38,9.40
2008,01,13,11,39,6.20
2008,01,13,11,40,9.70
2008,01,13,11,41,9.10
2008,01,13,11,42,6.50
2008,01,13,11,43,6.90
2008,01,13,11,44,4.70
2008,01,13,11,45,9.10
2008,01,13,11,46,7.70
2008,01,13,11,47,8.10
2008,01,13,11,48,11.70
2008,01,13,11,49,6.30
2008,01,13,11,50,6.20
2008,01,13,11,51,10.30
2008,01,13,11,52,10.10
2008,01,13,11,53,9.30
2008,01,13,11,54,10.50
2008,01,13,11,55,7.30
2008,01,13,11,56,6.40
2008,01,13,11,57,9.40
2008,01,13,11,58,10.70
2008,01,13,11,59,9.30
2008,01,13,12,00,10.40
2008,01,13,12,01,10.10
2008,01,13,12,02,11.40
2008,01,13,12,03,8.00
2008,01,13,12,04,5.20
2008,01,13,12,05,6.80
2008,01,13,12,06,7.60
2008,01,13,12,07,7.30
2008,01,13,12,08,8.90
2008,01,13,12,09,6.40
2008,01,13,12,10,3.80
2008,01,13,12,11,6.40
2008,01,13,12,12,2.20
2008,01,13,12,13,4.40
2008,01,13,12,14,6.10
2008,01,13,12,15,7.30
2008,01,13,12,16,10.50
2008,01,13,12,17,8.50
2008,01,13,12,18,10.90
2008,01,13,12,19,8.90
2008,01,13,12,20,7.30
2008,01,13,12,21,8.10
2008,01,13,12,22,6.60
2008,01,13,12,23,5.90
2008,01,13,12,24,5.30
2008,01,13,12,25,9.30
2008,01,13,12,26,10.60
2008,01,13,12,27,6.60
2008,01,13,12,28,5.10
2008,01,13,12,29,7.70
2008,01,13,12,30,5.30
2008,01,13,12,31,3.40
2008,01,13,12,32,1.40
2008,01,13,12,33,3.30
2008,01,13,12,34,1.60
2008,01,13,12,35,4.10
2008,01,13,12,36,4.80
2008,01,13,12,37,3.20
2008,01,13,12,38,1.70
2008,01,13,12,39,2.50
2008,01,13,12,40,2.70
2008,01,13,12,41,4.20
2008,01,13,12,42,1.70
2008,01,13,12,43,1.60
2008,01,13,12,44,0.60
2008,01,13,12,45,0.80
2008,01,13,12,46,1.80
2008,01,13,12,47,2.50
2008,01,13,12,48,5.30
2008,01,13,12,49,6.90
2008,01,13,12,50,5.80
2008,01,13,12,51,4.00
2008,01,13,12,52,1.80
2008,01,13,12,53,0.00
2008,01,13,12,54,0.00
2008,01,13,12,55,0.90
2008,01,13,12,56,1.20
2008,01,13,12,57,1.00
2008,01,13,12,58,1.20
2008,01,13,12,59,2.10
2008,01,13,13,00,1.30
2008,01,13,13,01,2.20
2008,01,13,13,02,2.00
2008,01,13,13,03,4.60
2008,01,13,13,04,3.50
2008,01,13,13,05,4.30
2008,01,13,13,06,0.70
2008,01,13,13,07,1.30
2008,01,13,13,08,1.60
2008,01,13,13,09,2.20
2008,01,13,13,10,1.60
2008,01,13,13,11,1.30
2008,01,13,13,12,3.60
2008,01,13,13,13,2.50
2008,01,13,13,14,4.10
2008,01,13,13,15,2.40
2008,01,13,13,16,2.10
2008,01,13,13,17,3.10
2008,01,13,13,18,4.00
2008,01,13,13,19,3.90
2008,01,13,13,20,4.60
2008,01,13,13,21,2.70
2008,01,13,13,22,3.70
2008,01,13,13,23,4.70
2008,01,13,13,24,5.00
2008,01,13,13,25,4.70
2008,01,13,13,26,2.70
2008,01,13,13,27,2.60
2008,01,13,13,28,4.30
2008,01,13,13,29,6.90
2008,01,13,13,30,8.70
2008,01,13,13,31,7.10
2008,01,13,13,32,4.50
2008,01,13,13,33,8.00
2008,01,13,13,34,6.10
2008,01,13,13,35,6.20
2008,01,13,13,36,6.30
2008,01,13,13,37,6.90
2008,01,13,13,38,6.80
2008,01,13,13,39,3.50
2008,01,13,13,40,4.90
2008,01,13,13,41,5.00
2008,01,13,13,42,6.30
2008,01,13,13,43,7.00
2008,01,13,13,44,5.90
2008,01,13,13,45,3.60
2008,01,13,13,46,5.60
2008,01,13,13,47,7.70
2008,01,13,13,48,5.30
2008,01,13,13,49,4.30
2008,01,13,13,50,3.90
2008,01,13,13,51,5.00
2008,01,13,13,52,4.20
2008,01,13,13,53,3.30
2008,01,13,13,54,4.40
2008,01,13,13,55,2.80
2008,01,13,13,56,4.90
2008,01,13,13,57,2.70
2008,01,13,13,58,5.20
2008,01,13,13,59,7.90
2008,01,13,14,00,6.20
2008,01,13,14,01,6.80
2008,01,13,14,02,6.10
2008,01,13,14,03,7.80
2008,01,13,14,04,10.30
2008,01,13,14,05,9.40
2008,01,13,14,06,7.50
2008,01,13,14,07,6.00
2008,01,13,14,08,9.70
2008,01,13,14,09,11.30
2008,01,13,14,10,12.70
2008,01,13,14,11,12.30
2008,01,13,14,12,9.30
2008,01,13,14,13,7.70
2008,01,13,14,14,7.60
2008,01,13,14,15,5.70
2008,01,13,14,16,6.50
2008,01,13,14,17,5.60
2008,01,13,14,18,10.10
2008,01,13,14,19,9.40
2008,01,13,14,20,11.20
2008,01,13,14,21,10.60
2008,01,13,14,22,12.40
2008,01,13,14,23,9.70
2008,01,13,14,24,11.80
2008,01,13,14,25,13.30
2008,01,13,14,26,11.00
2008,01,13,14,27,9.60
2008,01,13,14,28,10.50
2008,01,13,14,29,9.10
2008,01,13,14,30,8.70
2008,01,13,14,31,10.30
2008,01,13,14,32,10.70
2008,01,13,14,33,6.60
2008,01,13,14,34,9.00
2008,01,13,14,35,7.70
2008,01,13,14,36,6.00
2008,01,13,14,37,9.40
2008,01,13,14,38,7.40
2008,01,13,14,39,6.50
2008,01,13,14,40,12.30
2008,01,13,14,41,14.30
2008,01,13,14,42,13.00
2008,01,13,14,43,12.70
2008,01,13,14,44,10.90
2008,01,13,14,45,10.00
2008,01,13,14,46,10.50
2008,01,13,14,47,15.40
2008,01,13,14,48,14.50
2008,01,13,14,49,11.00
2008,01,13,14,50,13.70
2008,01,13,14,51,12.60
2008,01,13,14,52,9.90
2008,01,13,14,53,11.80
2008,01,13,14,54,9.40
2008,01,13,14,55,16.30
2008,01,13,14,56,13.00
2008,01,13,14,57,14.90
2008,01,13,14,58,12.20
2008,01,13,14,59,11.00
2008,01,13,15,00,15.20
2008,01,13,15,01,20.20
2008,01,13,15,02,9.70
2008,01,13,15,03,12.60
2008,01,13,15,04,11.30
2008,01,13,15,05,12.50
2008,01,13,15,06,17.00
2008,01,13,15,07,16.40
2008,01,13,15,08,18.30
2008,01,13,15,09,16.00
2008,01,13,15,10,14.50
2008,01,13,15,11,16.00
2008,01,13,15,12,13.10
2008,01,13,15,13,18.10
2008,01,13,15,14,15.00
2008,01,13,15,15,16.20
2008,01,13,15,16,16.90
2008,01,13,15,17,15.20
2008,01,13,15,18,15.50
2008,01,13,15,19,16.60
2008,01,13,15,20,14.70
2008,01,13,15,21,20.70
2008,01,13,15,22,17.70
2008,01,13,15,23,16.70
2008,01,13,15,24,14.20
2008,01,13,15,25,13.80
2008,01,13,15,26,14.60
2008,01,13,15,27,15.00
2008,01,13,15,28,7.20
2008,01,13,15,29,9.20
2008,01,13,15,30,12.50
2008,01,13,15,31,11.70
2008,01,13,15,32,10.70
2008,01,13,15,33,7.60
2008,01,13,15,34,9.00
2008,01,13,15,35,8.00
2008,01,13,15,36,8.00
2008,01,13,15,37,7.10
2008,01,13,15,38,7.90
2008,01,13,15,39,13.80
2008,01,13,15,40,9.10
2008,01,13,15,41,9.00
2008,01,13,15,42,11.40
2008,01,13,15,43,8.90
2008,01,13,15,44,10.30
2008,01,13,15,45,8.30
2008,01,13,15,46,6.10
2008,01,13,15,47,6.60
2008,01,13,15,48,7.30
2008,01,13,15,49,8.40
2008,01,13,15,50,12.00
2008,01,13,15,51,11.30
2008,01,13,15,52,9.10
2008,01,13,15,53,8.90
2008,01,13,15,54,12.20
2008,01,13,15,55,9.90
2008,01,13,15,56,10.20
2008,01,13,15,57,7.60
2008,01,13,15,58,10.40
2008,01,13,15,59,13.50
2008,01,13,16,00,9.40
2008,01,13,16,01,7.30
2008,01,13,16,02,12.60
2008,01,13,16,03,7.90
2008,01,13,16,04,11.30
2008,01,13,16,05,13.00
2008,01,13,16,06,9.70
2008,01,13,16,07,7.90
2008,01,13,16,08,9.70
2008,01,13,16,09,6.80
2008,01,13,16,10,12.30
2008,01,13,16,11,10.50
2008,01,13,16,12,7.10
2008,01,13,16,13,6.70
2008,01,13,16,14,5.00
2008,01,13,16,15,3.80
2008,01,13,16,16,5.90
2008,01,13,16,17,5.80
2008,01,13,16,18,6.40
2008,01,13,16,19,6.90
2008,01,13,16,20,7.80
2008,01,13,16,21,7.30
2008,01,13,16,22,8.60
2008,01,13,16,23,10.10
2008,01,13,16,24,13.40
2008,01,13,16,25,9.10
2008,01,13,16,26,8.20
2008,01,13,16,27,6.40
2008,01,13,16,28,7.90
2008,01,13,16,29,10.80
2008,01,13,16,30,11.30
2008,01,13,16,31,13.00
2008,01,13,16,32,9.80
2008,01,13,16,33,10.00
2008,01,13,16,34,10.70
2008,01,13,16,35,7.20
2008,01,13,16,36,10.50
2008,01,13,16,37,9.40
2008,01,13,16,38,11.10
2008,01,13,16,39,6.70
2008,01,13,16,40,6.90
2008,01,13,16,41,6.00
2008,01,13,16,42,5.80
2008,01,13,16,43,5.10
2008,01,13,16,44,4.90
2008,01,13,16,45,5.00
2008,01,13,16,46,4.70
2008,01,13,16,47,4.30
2008,01,13,16,48,5.20
2008,01,13,16,49,7.40
2008,01,13,16,50,7.30
2008,01,13,16,51,5.70
2008,01,13,16,52,5.50
2008,01,13,16,53,5.30
2008,01,13,16,54,3.20
2008,01,13,16,55,4.90
2008,01,13,16,56,7.70
2008,01,13,16,57,5.80
2008,01,13,16,58,3.20
2008,01,13,16,59,3.90
2008,01,13,17,00,2.60
2008,01,13,17,01,3.10
2008,01,13,17,02,2.00
2008,01,13,17,03,5.80
2008,01,13,17,04,5.10
2008,01,13,17,05,5.10
2008,01,13,17,06,2.80
2008,01,13,17,07,5.60
2008,01,13,17,08,6.00
2008,01,13,17,09,8.80
2008,01,13,17,10,6.10
2008,01,13,17,11,4.50
2008,01,13,17,12,4.00
2008,01,13,17,13,3.10
2008,01,13,17,14,4.10
2008,01,13,17,15,4.30
2008,01,13,17,16,3.20
2008,01,13,17,17,4.70
2008,01,13,17,18,9.00
2008,01,13,17,19,12.20
2008,01,13,17,20,5.40
2008,01,13,17,21,4.00
2008,01,13,17,22,4.20
2008,01,13,17,23,2.70
2008,01,13,17,24,3.40
2008,01,13,17,25,5.70
2008,01,13,17,26,4.80
2008,01,13,17,27,6.80
2008,01,13,17,28,6.00
2008,01,13,17,29,5.00
2008,01,13,17,30,6.40
2008,01,13,17,31,4.10
2008,01,13,17,32,5.10
2008,01,13,17,33,6.40
2008,01,13,17,34,7.90
2008,01,13,17,35,7.30
2008,01,13,17,36,7.70
2008,01,13,17,37,8.80
2008,01,13,17,38,8.00
2008,01,13,17,39,11.20
2008,01,13,17,40,9.80
2008,01,13,17,41,10.20
2008,01,13,17,42,15.00
2008,01,13,17,43,7.70
2008,01,13,17,44,11.30
2008,01,13,17,45,6.90
2008,01,13,17,46,7.00
2008,01,13,17,47,6.60
2008,01,13,17,48,7.50
2008,01,13,17,49,8.80
2008,01,13,17,50,8.10
2008,01,13,17,51,11.70
2008,01,13,17,52,8.20
2008,01,13,17,53,6.70
2008,01,13,17,54,7.30
2008,01,13,17,55,8.40
2008,01,13,17,56,8.80
2008,01,13,17,57,6.90
2008,01,13,17,58,7.30
2008,01,13,17,59,9.00
2008,01,13,18,00,10.20